When you browse on this site, cookies collect data to enhance your experience and personalize the content and advertising you see.
Visit our Privacy Policy to learn more. By continuing to use the site, you agree to this use of cookies and data.

Météo par heure à Lubango

Ce jour, 28 Septembre, Lundi

Heure Température Précipitation Vent Pression Humidité
00:00 +13°C° 0 mm 1 m/s 607 mmHg 65%
01:00 +13°C° 0 mm 1 m/s 607 mmHg 63%
02:00 +13°C° 0 mm 1 m/s 606 mmHg 63%
03:00 +12°C° 0 mm 1 m/s 606 mmHg 62%
04:00 +12°C° 0 mm 1 m/s 606 mmHg 61%
05:00 +14°C° 0 mm 1 m/s 607 mmHg 53%
06:00 +16°C° 0 mm 1 m/s 608 mmHg 45%
07:00 +18°C° 0 mm 1 m/s 609 mmHg 38%
08:00 +22°C° 0 mm 1 m/s 611 mmHg 30%
09:00 +25°C° 0 mm 2 m/s 612 mmHg 23%
10:00 +29°C° 0 mm 2 m/s 613 mmHg 16%
11:00 +30°C° 0 mm 2 m/s 613 mmHg 15%
12:00 +31°C° 0 mm 2 m/s 612 mmHg 15%
13:00 +33°C° 0 mm 3 m/s 612 mmHg 14%
14:00 +31°C° 0 mm 3 m/s 611 mmHg 18%
15:00 +29°C° 0 mm 4 m/s 610 mmHg 21%
16:00 +28°C° 0 mm 5 m/s 609 mmHg 25%
17:00 +23°C° 0 mm 4 m/s 609 mmHg 39%
18:00 +19°C° 0 mm 3 m/s 608 mmHg 53%
19:00 +16°C° 0 mm 2 m/s 607 mmHg 67%
20:00 +15°C° 0 mm 1 m/s 607 mmHg 66%
21:00 +15°C° 0 mm 1 m/s 608 mmHg 64%
22:00 +14°C° 0 mm 1 m/s 608 mmHg 62%
23:00 +14°C° 0 mm 1 m/s 608 mmHg 60%

Demain, 29 Septembre, Mardi

Heure Température Précipitation Vent Pression Humidité
00:00 +14°C° 0 mm 1 m/s 607 mmHg 58%
01:00 +14°C° 0 mm 1 m/s 607 mmHg 56%
02:00 +14°C° 0 mm 1 m/s 607 mmHg 51%
03:00 +14°C° 0 mm 1 m/s 607 mmHg 46%
04:00 +14°C° 0 mm 1 m/s 607 mmHg 41%
05:00 +16°C° 0 mm 1 m/s 608 mmHg 36%
06:00 +18°C° 0 mm 1 m/s 609 mmHg 32%
07:00 +20°C° 0 mm 1 m/s 610 mmHg 28%
08:00 +23°C° 0 mm 2 m/s 611 mmHg 24%
09:00 +26°C° 0 mm 2 m/s 612 mmHg 19%
10:00 +29°C° 0 mm 3 m/s 613 mmHg 15%
11:00 +30°C° 0 mm 3 m/s 613 mmHg 14%
12:00 +31°C° 0 mm 3 m/s 612 mmHg 14%
13:00 +33°C° 0 mm 3 m/s 612 mmHg 13%
14:00 +32°C° 0 mm 4 m/s 611 mmHg 15%
15:00 +30°C° 0 mm 4 m/s 611 mmHg 18%
16:00 +29°C° 0 mm 5 m/s 610 mmHg 20%
17:00 +25°C° 0 mm 4 m/s 609 mmHg 33%
18:00 +20°C° 0 mm 3 m/s 608 mmHg 47%
19:00 +16°C° 0 mm 1 m/s 607 mmHg 60%
20:00 +15°C° 0 mm 1 m/s 607 mmHg 59%
21:00 +15°C° 0 mm 1 m/s 607 mmHg 59%
22:00 +14°C° 0 mm 1 m/s 608 mmHg 58%
23:00 +14°C° 0 mm 1 m/s 607 mmHg 56%

Après-demain, 30 Septembre, Mercredi

Heure Température Précipitation Vent Pression Humidité
00:00 +14°C° 0 mm 1 m/s 607 mmHg 53%
01:00 +14°C° 0 mm 2 m/s 607 mmHg 50%
02:00 +14°C° 0 mm 1 m/s 607 mmHg 49%
03:00 +13°C° 0 mm 1 m/s 606 mmHg 47%
04:00 +13°C° 0 mm 1 m/s 606 mmHg 46%
05:00 +14°C° 0 mm 1 m/s 607 mmHg 42%
06:00 +16°C° 0 mm 1 m/s 608 mmHg 38%
07:00 +18°C° 0 mm 1 m/s 609 mmHg 34%
08:00 +20°C° 0 mm 2 m/s 610 mmHg 28%
09:00 +25°C° 0 mm 2 m/s 611 mmHg 22%
10:00 +28°C° 0 mm 3 m/s 612 mmHg 16%
11:00 +29°C° 0 mm 3 m/s 612 mmHg 16%
12:00 +30°C° 0 mm 3 m/s 612 mmHg 15%
13:00 +32°C° 0 mm 4 m/s 611 mmHg 15%
14:00 +30°C° 0 mm 4 m/s 610 mmHg 17%
15:00 +29°C° 0 mm 4 m/s 610 mmHg 19%
16:00 +27°C° 0 mm 5 m/s 609 mmHg 21%
17:00 +22°C° 0 mm 4 m/s 608 mmHg 37%
18:00 +18°C° 0 mm 3 m/s 607 mmHg 52%
19:00 +14°C° 0 mm 2 m/s 606 mmHg 68%
20:00 +14°C° 0 mm 1 m/s 606 mmHg 69%
21:00 +13°C° 0 mm 1 m/s 606 mmHg 69%
22:00 +12°C° 0 mm 1 m/s 607 mmHg 69%
23:00 +12°C° 0 mm 1 m/s 606 mmHg 68%

1 Octobre, Jeudi

Heure Température Précipitation Vent Pression Humidité
00:00 +12°C° 0 mm 1 m/s 606 mmHg 67%
01:00 +11°C° 0 mm 1 m/s 606 mmHg 66%
02:00 +11°C° 0 mm 1 m/s 605 mmHg 64%
03:00 +11°C° 0 mm 1 m/s 605 mmHg 62%
04:00 +11°C° 0 mm 1 m/s 605 mmHg 60%
05:00 +13°C° 0 mm 1 m/s 606 mmHg 51%
06:00 +14°C° 0 mm 1 m/s 607 mmHg 42%
07:00 +16°C° 0 mm 1 m/s 608 mmHg 33%
08:00 +21°C° 0 mm 1 m/s 609 mmHg 27%
09:00 +24°C° 0 mm 1 m/s 611 mmHg 21%
10:00 +28°C° 0 mm 1 m/s 612 mmHg 15%
11:00 +29°C° 0 mm 2 m/s 612 mmHg 15%
12:00 +30°C° 0 mm 3 m/s 611 mmHg 15%
13:00 +31°C° 0 mm 3 m/s 611 mmHg 15%
14:00 +30°C° 0 mm 4 m/s 610 mmHg 17%
15:00 +28°C° 0 mm 4 m/s 609 mmHg 18%
16:00 +27°C° 0 mm 4 m/s 609 mmHg 20%
17:00 +22°C° 0 mm 3 m/s 608 mmHg 34%
18:00 +18°C° 0 mm 2 m/s 607 mmHg 48%
19:00 +14°C° 0 mm 1 m/s 606 mmHg 62%
20:00 +14°C° 0 mm 1 m/s 606 mmHg 63%
21:00 +13°C° 0 mm 1 m/s 606 mmHg 64%
22:00 +13°C° 0 mm 1 m/s 607 mmHg 65%
23:00 +13°C° 0 mm 1 m/s 607 mmHg 65%

2 Octobre, Vendredi

Heure Température Précipitation Vent Pression Humidité
00:00 +12°C° 0 mm 1 m/s 606 mmHg 64%
01:00 +12°C° 0 mm 1 m/s 606 mmHg 64%
02:00 +12°C° 0 mm 1 m/s 606 mmHg 63%
03:00 +12°C° 0 mm 1 m/s 606 mmHg 61%
04:00 +12°C° 0 mm 1 m/s 606 mmHg 60%
05:00 +13°C° 0 mm 1 m/s 607 mmHg 55%
06:00 +15°C° 0 mm 1 m/s 608 mmHg 50%
07:00 +16°C° 0 mm 1 m/s 609 mmHg 45%
08:00 +21°C° 0 mm 1 m/s 610 mmHg 36%
09:00 +24°C° 0 mm 1 m/s 611 mmHg 28%
10:00 +28°C° 0 mm 2 m/s 612 mmHg 19%
11:00 +29°C° 0 mm 2 m/s 612 mmHg 18%
12:00 +30°C° 0 mm 3 m/s 612 mmHg 18%
13:00 +32°C° 0 mm 4 m/s 611 mmHg 17%
14:00 +30°C° 0 mm 4 m/s 611 mmHg 19%
15:00 +29°C° 0 mm 4 m/s 610 mmHg 21%
16:00 +28°C° 0 mm 4 m/s 609 mmHg 23%
17:00 +24°C° 0 mm 3 m/s 608 mmHg 36%
18:00 +19°C° 0 mm 2 m/s 608 mmHg 48%
19:00 +16°C° 0 mm 1 m/s 607 mmHg 60%
20:00 +15°C° 0 mm 1 m/s 607 mmHg 60%
21:00 +15°C° 0 mm 1 m/s 607 mmHg 59%
22:00 +13°C° 0 mm 0 m/s 608 mmHg 58%
23:00 +13°C° 0 mm 0 m/s 608 mmHg 56%

3 Octobre, Samedi

Heure Température Précipitation Vent Pression Humidité
00:00 +13°C° 0 mm 0 m/s 607 mmHg 53%
01:00 +13°C° 0 mm 0 m/s 607 mmHg 50%
02:00 +14°C° 0 mm 1 m/s 607 mmHg 49%
03:00 +13°C° 0 mm 1 m/s 607 mmHg 48%
04:00 +13°C° 0 mm 1 m/s 607 mmHg 47%
05:00 +15°C° 0 mm 1 m/s 608 mmHg 41%
06:00 +16°C° 0 mm 1 m/s 609 mmHg 35%
07:00 +19°C° 0 mm 1 m/s 610 mmHg 30%
08:00 +22°C° 0 mm 1 m/s 611 mmHg 24%
09:00 +25°C° 0 mm 2 m/s 612 mmHg 19%
10:00 +29°C° 0 mm 2 m/s 613 mmHg 13%
11:00 +30°C° 0 mm 2 m/s 613 mmHg 13%
12:00 +31°C° 0 mm 2 m/s 613 mmHg 12%
13:00 +34°C° 0 mm 2 m/s 612 mmHg 12%
14:00 +33°C° 0 mm 3 m/s 612 mmHg 13%
15:00 +32°C° 0 mm 4 m/s 611 mmHg 14%
16:00 +30°C° 0 mm 4 m/s 610 mmHg 15%
17:00 +26°C° 0 mm 4 m/s 609 mmHg 27%
18:00 +21°C° 0 mm 3 m/s 608 mmHg 38%
19:00 +16°C° 0 mm 2 m/s 607 mmHg 49%
20:00 +16°C° 0 mm 2 m/s 608 mmHg 47%
21:00 +16°C° 0 mm 2 m/s 608 mmHg 45%
22:00 +16°C° 0 mm 2 m/s 608 mmHg 43%
23:00 +15°C° 0 mm 1 m/s 608 mmHg 41%
Voir plus